JZR102 OBBI-OKKK

Flight info

Callsign JZR102
Flight time 0h 48m
Altitude 26000
Route BHR345/30R BHR A453 KUMBO/N0421F240 A453 DEBTI
Aircraft A20N/M-SDE2E3FGHIRWXY/LB1

Departure

Time 2026-05-04 17:37
Airport Bahrain International Airport (OBBI)

Arrival

Time 2026-05-04 18:25
Airport Kuwait International Airport (OKKK)
Time Latitude Longitude Altitude Speed Heading
2026-05-04 16:32 26.26974 50.62780 25 ft 0 kts 213°
2026-05-04 17:19 26.27012 50.62803 33 ft 4 kts 201°
2026-05-04 17:20 26.27064 50.62814 28 ft 4 kts 166°
2026-05-04 17:20 26.27081 50.62804 26 ft 1 kts 123°
2026-05-04 17:25 26.27080 50.62806 24 ft 0 kts 123°
2026-05-04 17:27 26.27061 50.62841 27 ft 5 kts 116°
2026-05-04 17:27 26.27124 50.62937 25 ft 8 kts 93°
2026-05-04 17:28 26.27056 50.63054 27 ft 19 kts 123°
2026-05-04 17:29 26.26680 50.63705 27 ft 34 kts 122°
2026-05-04 17:29 26.26312 50.64344 22 ft 32 kts 123°
2026-05-04 17:30 26.26008 50.64894 24 ft 11 kts 90°
2026-05-04 17:31 26.26020 50.64925 24 ft 0 kts 53°
2026-05-04 17:35 26.26021 50.64926 24 ft 1 kts 53°
2026-05-04 17:35 26.26037 50.64949 23 ft 10 kts 50°
2026-05-04 17:36 26.26121 50.65001 22 ft 10 kts 351°
2026-05-04 17:36 26.26171 50.64944 21 ft 21 kts 302°
2026-05-04 17:36 26.26379 50.64587 18 ft 86 kts 303°
2026-05-04 17:36 26.26811 50.63836 20 ft 139 kts 302°
2026-05-04 17:37 26.27396 50.62805 86 ft 169 kts 302°
2026-05-04 17:37 26.28032 50.61712 546 ft 168 kts 304°
2026-05-04 17:37 26.28699 50.60630 1174 ft 167 kts 308°
2026-05-04 17:37 26.29348 50.59600 1853 ft 159 kts 310°
2026-05-04 17:38 26.29989 50.58630 2482 ft 153 kts 312°
2026-05-04 17:38 26.30646 50.57714 3083 ft 149 kts 315°
2026-05-04 17:38 26.31337 50.56865 3668 ft 147 kts 318°
2026-05-04 17:38 26.32110 50.56127 4201 ft 149 kts 333°
2026-05-04 17:39 26.34369 50.55359 4592 ft 198 kts 347°
2026-05-04 17:39 26.35789 50.55025 4442 ft 218 kts 348°
2026-05-04 17:39 26.37331 50.54664 4261 ft 232 kts 348°
2026-05-04 17:40 26.38938 50.54287 4563 ft 238 kts 348°
2026-05-04 17:40 26.40582 50.54093 5082 ft 238 kts 351°
2026-05-04 17:40 26.42197 50.53814 5612 ft 239 kts 349°
2026-05-04 17:40 26.43842 50.53487 6126 ft 241 kts 348°
2026-05-04 17:41 26.45498 50.53146 6612 ft 242 kts 348°
2026-05-04 17:41 26.47162 50.52810 7094 ft 245 kts 348°
2026-05-04 17:41 26.48899 50.52467 7363 ft 262 kts 348°
2026-05-04 17:41 26.50724 50.52117 7884 ft 269 kts 348°
2026-05-04 17:42 26.52581 50.51772 8527 ft 272 kts 348°
2026-05-04 17:42 26.54457 50.51428 9205 ft 274 kts 348°
2026-05-04 17:42 26.56349 50.51083 9867 ft 277 kts 348°
2026-05-04 17:42 26.58271 50.50732 10345 ft 287 kts 348°
2026-05-04 17:43 26.60296 50.50359 10608 ft 304 kts 348°
2026-05-04 17:43 26.62437 50.49963 10866 ft 320 kts 348°
2026-05-04 17:43 26.64683 50.49548 11111 ft 335 kts 348°
2026-05-04 17:43 26.67029 50.49112 11334 ft 348 kts 348°
2026-05-04 17:44 26.69384 50.48348 11580 ft 357 kts 335°
2026-05-04 17:44 26.71547 50.46942 11960 ft 362 kts 324°
2026-05-04 17:44 26.73546 50.45205 12420 ft 366 kts 319°
2026-05-04 17:44 26.75459 50.43305 12849 ft 371 kts 317°
2026-05-04 17:45 26.77341 50.41304 13337 ft 374 kts 316°
2026-05-04 17:45 26.79210 50.39265 13868 ft 376 kts 315°
2026-05-04 17:45 26.81083 50.37216 14263 ft 378 kts 315°
2026-05-04 17:45 26.82977 50.35159 14635 ft 381 kts 316°
2026-05-04 17:46 26.84899 50.33093 15018 ft 384 kts 316°
2026-05-04 17:46 26.86836 50.31026 15411 ft 386 kts 316°
2026-05-04 17:46 26.88792 50.28948 15827 ft 389 kts 316°
2026-05-04 17:46 26.90764 50.26859 16230 ft 392 kts 316°
2026-05-04 17:47 26.92750 50.24755 16650 ft 394 kts 316°
2026-05-04 17:47 26.94745 50.22639 17075 ft 396 kts 315°
2026-05-04 17:47 26.96754 50.20509 17474 ft 398 kts 315°
2026-05-04 17:47 26.98770 50.18368 17841 ft 401 kts 315°
2026-05-04 17:48 27.00781 50.16232 18145 ft 405 kts 315°
2026-05-04 17:48 27.02830 50.14053 18453 ft 407 kts 315°
2026-05-04 17:48 27.04806 50.11779 18802 ft 408 kts 311°
2026-05-04 17:48 27.06709 50.09412 19141 ft 409 kts 310°
2026-05-04 17:49 27.08606 50.06979 19492 ft 410 kts 309°
2026-05-04 17:49 27.10441 50.04580 19872 ft 410 kts 309°
2026-05-04 17:49 27.12314 50.02109 20229 ft 412 kts 308°
2026-05-04 17:49 27.14149 49.99682 20568 ft 413 kts 308°
2026-05-04 17:50 27.16010 49.97219 20909 ft 415 kts 308°
2026-05-04 17:50 27.17889 49.94736 21187 ft 419 kts 308°
2026-05-04 17:50 27.19803 49.92208 21529 ft 421 kts 308°
2026-05-04 17:50 27.21705 49.89699 21890 ft 422 kts 308°
2026-05-04 17:51 27.23614 49.87182 22221 ft 424 kts 308°
2026-05-04 17:51 27.25529 49.84656 22579 ft 426 kts 308°
2026-05-04 17:51 27.27454 49.82116 22961 ft 427 kts 308°
2026-05-04 17:51 27.29384 49.79566 23342 ft 429 kts 308°
2026-05-04 17:52 27.31322 49.77004 23657 ft 431 kts 307°
2026-05-04 17:52 27.33266 49.74434 23772 ft 432 kts 307°
2026-05-04 17:52 27.35216 49.71853 23798 ft 433 kts 307°
2026-05-04 17:52 27.37170 49.69265 23798 ft 434 kts 307°
2026-05-04 17:53 27.39122 49.66679 23798 ft 434 kts 307°
2026-05-04 17:53 27.41079 49.64085 23807 ft 435 kts 307°
2026-05-04 17:53 27.43038 49.61487 23801 ft 435 kts 307°
2026-05-04 17:53 27.44999 49.58885 23797 ft 435 kts 307°
2026-05-04 17:54 27.46943 49.56335 23796 ft 436 kts 310°
2026-05-04 17:54 27.49169 49.53935 23799 ft 439 kts 315°
2026-05-04 17:54 27.51489 49.51696 23794 ft 439 kts 316°
2026-05-04 17:54 27.53858 49.49513 23799 ft 440 kts 317°
2026-05-04 17:55 27.56257 49.47358 23806 ft 441 kts 318°
2026-05-04 17:55 27.58664 49.45218 23797 ft 441 kts 318°
2026-05-04 17:55 27.61045 49.43106 23795 ft 441 kts 318°
2026-05-04 17:55 27.63454 49.40963 23796 ft 441 kts 318°
2026-05-04 17:56 27.65845 49.38829 23797 ft 441 kts 318°
2026-05-04 17:56 27.68255 49.36671 23801 ft 441 kts 318°
2026-05-04 17:56 27.70654 49.34517 23796 ft 441 kts 318°
2026-05-04 17:56 27.73054 49.32360 23795 ft 441 kts 318°
2026-05-04 17:57 27.75460 49.30194 23800 ft 442 kts 317°
2026-05-04 17:57 27.77861 49.28031 23796 ft 442 kts 317°
2026-05-04 17:57 27.80266 49.25864 23793 ft 443 kts 317°
2026-05-04 17:57 27.82674 49.23693 23793 ft 443 kts 317°
2026-05-04 17:58 27.85082 49.21521 23792 ft 443 kts 317°
2026-05-04 17:58 27.87575 49.19467 23796 ft 446 kts 323°
2026-05-04 17:58 27.90183 49.17608 23796 ft 446 kts 324°
2026-05-04 17:58 27.92847 49.15796 23796 ft 448 kts 325°
2026-05-04 17:59 27.95539 49.14015 23794 ft 449 kts 326°
2026-05-04 17:59 27.98249 49.12245 23793 ft 450 kts 326°
2026-05-04 17:59 28.02756 49.09314 23799 ft 450 kts 326°
2026-05-04 18:00 28.06452 49.06896 23569 ft 468 kts 326°
2026-05-04 18:00 28.09288 49.05033 23350 ft 472 kts 326°
2026-05-04 18:00 28.12124 49.03172 23094 ft 471 kts 326°
2026-05-04 18:00 28.14930 49.01329 22836 ft 468 kts 326°
2026-05-04 18:01 28.17747 48.99478 22576 ft 466 kts 326°
2026-05-04 18:01 28.19594 48.98262 22408 ft 464 kts 326°
2026-05-04 18:01 28.22383 48.96425 22149 ft 462 kts 326°
2026-05-04 18:02 28.27906 48.92781 21813 ft 458 kts 326°
2026-05-04 18:02 28.30657 48.90962 21794 ft 457 kts 326°
2026-05-04 18:02 28.33399 48.89147 21792 ft 456 kts 326°
2026-05-04 18:02 28.36132 48.87338 21584 ft 454 kts 326°
2026-05-04 18:03 28.39734 48.84951 21180 ft 450 kts 326°
2026-05-04 18:03 28.41555 48.83745 20715 ft 446 kts 326°
2026-05-04 18:03 28.44227 48.81974 19951 ft 444 kts 326°
2026-05-04 18:03 28.46881 48.80212 19180 ft 441 kts 326°
2026-05-04 18:04 28.49522 48.78459 18466 ft 437 kts 326°
2026-05-04 18:04 28.52125 48.76731 18002 ft 427 kts 326°
2026-05-04 18:04 28.56983 48.73111 17717 ft 413 kts 314°
2026-05-04 18:05 28.58975 48.70775 17790 ft 411 kts 309°
2026-05-04 18:05 28.60824 48.68298 17790 ft 410 kts 306°
2026-05-04 18:05 28.62585 48.65737 17786 ft 410 kts 304°
2026-05-04 18:05 28.64299 48.63139 17783 ft 410 kts 304°
2026-05-04 18:06 28.67640 48.58051 16565 ft 401 kts 304°
2026-05-04 18:06 28.69366 48.55562 15850 ft 399 kts 306°
2026-05-04 18:06 28.71111 48.53169 15522 ft 386 kts 307°
2026-05-04 18:07 28.72846 48.50912 15232 ft 370 kts 310°
2026-05-04 18:07 28.74817 48.49131 14898 ft 358 kts 326°
2026-05-04 18:07 28.77041 48.47972 14609 ft 344 kts 333°
2026-05-04 18:07 28.79216 48.47006 14348 ft 328 kts 333°
2026-05-04 18:08 28.81302 48.46110 14072 ft 313 kts 333°
2026-05-04 18:08 28.83318 48.45258 13659 ft 306 kts 333°
2026-05-04 18:08 28.85301 48.44427 13106 ft 302 kts 334°
2026-05-04 18:08 28.87267 48.43592 12512 ft 300 kts 333°
2026-05-04 18:09 28.90921 48.41408 11277 ft 295 kts 324°
2026-05-04 18:09 28.94375 48.38937 10170 ft 291 kts 324°
2026-05-04 18:10 28.96077 48.37686 9614 ft 290 kts 323°
2026-05-04 18:10 28.97762 48.36430 9021 ft 288 kts 324°
2026-05-04 18:10 28.99427 48.35171 8438 ft 287 kts 324°
2026-05-04 18:10 29.01075 48.33904 7864 ft 285 kts 324°
2026-05-04 18:11 29.02707 48.32629 7298 ft 283 kts 324°
2026-05-04 18:11 29.04317 48.31351 6751 ft 281 kts 324°
2026-05-04 18:11 29.05912 48.30069 6220 ft 279 kts 323°
2026-05-04 18:11 29.07489 48.28787 5648 ft 278 kts 324°
2026-05-04 18:12 29.09058 48.27498 5059 ft 278 kts 324°
2026-05-04 18:12 29.10621 48.26199 4472 ft 278 kts 324°
2026-05-04 18:12 29.12182 48.24883 3856 ft 279 kts 323°
2026-05-04 18:12 29.13735 48.23559 3337 ft 277 kts 323°
2026-05-04 18:13 29.15269 48.22249 3062 ft 275 kts 323°
2026-05-04 18:13 29.16821 48.20932 3012 ft 280 kts 323°
2026-05-04 18:13 29.19948 48.18279 3001 ft 279 kts 323°
2026-05-04 18:14 29.21509 48.16954 3003 ft 280 kts 323°
2026-05-04 18:14 29.23049 48.15649 3001 ft 280 kts 323°
2026-05-04 18:14 29.24635 48.14306 2999 ft 280 kts 323°
2026-05-04 18:15 29.27759 48.11661 2998 ft 279 kts 323°
2026-05-04 18:15 29.30888 48.09033 3000 ft 278 kts 323°
2026-05-04 18:15 29.32425 48.07742 2998 ft 278 kts 323°
2026-05-04 18:16 29.34004 48.06418 3000 ft 277 kts 323°
2026-05-04 18:16 29.35562 48.05119 3000 ft 277 kts 323°
2026-05-04 18:16 29.37120 48.03822 3000 ft 277 kts 324°
2026-05-04 18:17 29.40238 48.01211 3000 ft 278 kts 323°
2026-05-04 18:17 29.41782 47.99922 2701 ft 278 kts 324°
2026-05-04 18:17 29.44732 47.97435 2482 ft 244 kts 323°
2026-05-04 18:18 29.45968 47.96134 2490 ft 236 kts 301°
2026-05-04 18:18 29.46474 47.94417 2494 ft 230 kts 268°
2026-05-04 18:18 29.46189 47.92613 2512 ft 228 kts 248°
2026-05-04 18:18 29.45616 47.90945 2496 ft 228 kts 244°
2026-05-04 18:19 29.44358 47.87628 2508 ft 226 kts 243°
2026-05-04 18:19 29.43749 47.86027 2481 ft 209 kts 242°
2026-05-04 18:19 29.42892 47.84822 2483 ft 189 kts 209°
2026-05-04 18:20 29.41705 47.84219 2493 ft 186 kts 191°
2026-05-04 18:20 29.40478 47.84441 2519 ft 182 kts 153°
2026-05-04 18:20 29.39358 47.85150 2498 ft 184 kts 149°
2026-05-04 18:20 29.38288 47.85879 2492 ft 175 kts 149°
2026-05-04 18:21 29.37219 47.86516 2504 ft 173 kts 154°
2026-05-04 18:21 29.36158 47.87076 2503 ft 160 kts 154°
2026-05-04 18:21 29.35196 47.87589 2505 ft 148 kts 154°
2026-05-04 18:21 29.34265 47.88086 2467 ft 147 kts 154°
2026-05-04 18:22 29.33347 47.88572 2296 ft 144 kts 153°
2026-05-04 18:22 29.32448 47.89053 2114 ft 142 kts 153°
2026-05-04 18:22 29.31557 47.89529 1932 ft 140 kts 153°
2026-05-04 18:22 29.30678 47.89999 1754 ft 139 kts 153°
2026-05-04 18:23 29.29804 47.90465 1585 ft 138 kts 153°
2026-05-04 18:23 29.28939 47.90928 1408 ft 137 kts 153°
2026-05-04 18:23 29.28073 47.91390 1233 ft 138 kts 153°
2026-05-04 18:23 29.27203 47.91852 1022 ft 138 kts 153°
2026-05-04 18:24 29.26322 47.92290 880 ft 139 kts 155°
2026-05-04 18:24 29.25445 47.92795 722 ft 143 kts 152°
2026-05-04 18:24 29.24551 47.93270 577 ft 141 kts 155°
2026-05-04 18:24 29.23657 47.93725 375 ft 140 kts 153°
2026-05-04 18:25 29.22793 47.94204 221 ft 138 kts 154°
2026-05-04 18:25 29.21946 47.94652 170 ft 122 kts 151°
2026-05-04 18:25 29.21441 47.94929 171 ft 38 kts 155°
2026-05-04 18:25 29.21214 47.95049 168 ft 42 kts 155°
2026-05-04 18:26 29.20925 47.95204 167 ft 50 kts 155°
2026-05-04 18:26 29.20700 47.95334 171 ft 27 kts 137°
2026-05-04 18:26 29.20597 47.95470 172 ft 18 kts 123°
2026-05-04 18:26 29.20545 47.95584 172 ft 10 kts 75°
2026-05-04 18:27 29.20594 47.95623 174 ft 8 kts 359°
2026-05-04 18:27 29.20616 47.95616 174 ft 0 kts 331°
2026-05-04 18:29 29.20617 47.95615 174 ft 0 kts 331°
2026-05-04 18:29 29.20641 47.95600 175 ft 9 kts 331°
2026-05-04 18:29 29.20726 47.95548 174 ft 18 kts 335°
2026-05-04 18:29 29.20858 47.95486 174 ft 23 kts 335°
2026-05-04 18:30 29.21159 47.95326 169 ft 24 kts 335°
2026-05-04 18:30 29.21314 47.95244 167 ft 25 kts 334°
2026-05-04 18:30 29.21469 47.95162 170 ft 23 kts 335°
2026-05-04 18:31 29.21612 47.95084 170 ft 23 kts 335°
2026-05-04 18:31 29.21757 47.95008 170 ft 23 kts 336°
2026-05-04 18:31 29.21902 47.94935 166 ft 20 kts 353°
2026-05-04 18:31 29.21945 47.94976 164 ft 10 kts 67°
2026-05-04 18:32 29.21988 47.95083 164 ft 17 kts 65°
2026-05-04 18:32 29.22043 47.95216 163 ft 21 kts 65°
2026-05-04 18:32 29.22118 47.95399 163 ft 28 kts 63°
2026-05-04 18:32 29.22205 47.95614 163 ft 32 kts 65°
2026-05-04 18:33 29.22305 47.95855 163 ft 35 kts 65°
2026-05-04 18:33 29.22413 47.96117 163 ft 38 kts 65°
2026-05-04 18:33 29.22518 47.96368 163 ft 32 kts 59°
2026-05-04 18:33 29.22589 47.96534 163 ft 12 kts 55°
2026-05-04 18:34 29.22636 47.96534 163 ft 8 kts 334°
2026-05-04 18:34 29.22726 47.96487 163 ft 17 kts 334°
2026-05-04 18:34 29.22832 47.96432 163 ft 16 kts 339°
2026-05-04 18:34 29.22850 47.96426 163 ft 0 kts 345°
2026-05-04 18:35 29.22862 47.96431 163 ft 5 kts 38°
2026-05-04 18:35 29.22901 47.96488 164 ft 12 kts 32°
2026-05-04 18:35 29.22997 47.96480 165 ft 9 kts 30°
2026-05-04 18:35 29.23013 47.96510 166 ft 0 kts 64°
2026-05-04 18:36 29.23014 47.96512 166 ft 1 kts 65°
2026-05-04 18:36 29.23024 47.96540 166 ft 7 kts 67°
2026-05-04 18:36 29.23072 47.96660 165 ft 26 kts 64°
2026-05-04 18:36 29.23153 47.96855 168 ft 26 kts 65°
2026-05-04 18:37 29.23218 47.96959 168 ft 0 kts 360°
2026-05-04 18:37 29.23234 47.96953 168 ft 3 kts 333°
2026-05-04 18:37 29.23235 47.96952 168 ft 0 kts 333°
2026-05-04 18:38 29.23259 47.96931 168 ft 0 kts 334°
2026-05-04 18:39 29.23268 47.96927 168 ft 3 kts 334°
2026-05-04 18:39 29.23328 47.96897 167 ft 15 kts 336°
2026-05-04 18:39 29.23449 47.96832 167 ft 23 kts 333°
2026-05-04 18:40 29.23525 47.96780 167 ft 1 kts 323°
2026-05-04 18:40 29.23536 47.96704 166 ft 30 kts 282°
2026-05-04 18:40 29.23606 47.96638 167 ft 12 kts 341°
2026-05-04 18:40 29.23665 47.96657 168 ft 3 kts 70°
2026-05-04 18:41 29.23700 47.96753 169 ft 29 kts 64°
2026-05-04 18:41 29.23777 47.96940 170 ft 16 kts 65°
2026-05-04 18:41 29.23861 47.96999 170 ft 14 kts 24°
2026-05-04 18:41 29.23899 47.97019 170 ft 2 kts 24°